User: anonymous   Login
Location: Arrakis Observatory
(44.1122°N, 95.7153°W)
Time: 22:32:22
(UTC-05:00)
Language:

Iridium 35 - Orbit

View from above orbital plane
View from above orbital plane
View from above satellite
View from above satellite

Ground track
Ground track

The orbit data is extracted from the following two-line orbital elements,

1 24966U 97056B   17117.76223193 +.00000119 +00000-0 +35469-4 0  9996
2 24966 086.3959 339.7889 0002106 086.5062 273.6374 14.34222723025023
Epoch (UTC): 27 April 2017 18:17:36
Eccentricity: 0.0002106
inclination: 86.3959°
perigee height: 776 km
apogee height: 779 km
right ascension of ascending node: 339.7889°
argument of perigee: 86.5062°
revolutions per day: 14.34222723
mean anomaly at epoch: 273.6374°
orbit number at epoch: 2502

The dashed part of the orbit path shows where the satellite is in the earth's shadow,  

DLR